Winona, MN

4:13 AM CST on December 13, 2017 (GMT -0600)
Winona Municipal-Conrad

Weather History for KONA - March, 2014

Change the Weather History Date:

Sunday, March 30, 2014

  Actual Average Record
Temperature  
Mean Temperature 46 °F -  
Max Temperature 60 °F 46 °F 73 °F (1999)
Min Temperature 32 °F 31 °F 8 °F (1975)
Degree Days  
Heating Degree Days 19    
Moisture  
Dew Point 34 °F    
Average Humidity 61    
Maximum Humidity 87    
Minimum Humidity 39    
Precipitation  
Precipitation 0.00 in - - ()
Sea Level Pressure  
Sea Level Pressure 29.98 in    
Wind  
Wind Speed 7 mph (SSE)    
Max Wind Speed 13 mph    
Max Gust Speed 23 mph    
Visibility 10 miles    
Events      
Averages and records for this station are not official NWS values.
T = Trace of Precipitation, MM = Missing Value Source: NWS Daily Summary

Daily Weather History Graph

Daily Weather History Graph

Search for Another Location

Airport or City:

Trip Planner

Search our weather history database for the weather conditions in past years. The results will help you decide how hot, cold, wet, or windy it might be!

Date:

Astronomy

Mar. 30, 2014 Rise Set
Actual Time 6:51 AM CDT 7:31 PM CDT
Civil Twilight 6:22 AM CDT 8:00 PM CDT
Nautical Twilight 5:48 AM CDT 8:35 PM CDT
Astronomical Twilight 5:12 AM CDT 9:11 PM CDT
Moon 6:37 AM CDT (3/30) 7:45 PM CDT (3/30)
Length of Visible Light 13h 38m
Length of Day
12h 39m
Waning Crescent, 0% of the Moon is Illuminated
Mar 30
Waning Crescent
Mar 30
New
Apr 7
First Quarter
Apr 15
Full
Apr 22
Last Quarter

Hourly Weather History & Observations

Time (CDT) Temp. Windchill Dew Point Humidity Pressure Visibility Wind Dir Wind Speed Gust Speed Precip Events Conditions
12:00 AM 33.8 °F 29.6 °F 28.4 °F 81% 30.17 in 10.0 mi SE 4.6 mph - N/A   Clear
12:20 AM 32.0 °F 27.5 °F 28.4 °F 87% 30.17 in 10.0 mi SE 4.6 mph - N/A   Clear
12:39 AM 33.8 °F 30.8 °F 30.2 °F 87% 30.16 in 10.0 mi SSE 3.5 mph - N/A   Clear
1:00 AM 33.8 °F 27.7 °F 30.2 °F 87% 30.16 in 10.0 mi SE 6.9 mph - N/A   Clear
1:20 AM 33.8 °F 27.0 °F 30.2 °F 87% 30.15 in 10.0 mi SE 8.1 mph - N/A   Clear
1:39 AM 33.8 °F 27.7 °F 28.4 °F 81% 30.14 in 10.0 mi SE 6.9 mph - N/A   Clear
2:00 AM 35.6 °F 30.7 °F 30.2 °F 81% 30.14 in 10.0 mi SE 5.8 mph - N/A   Clear
2:20 AM 33.8 °F 29.6 °F 30.2 °F 87% 30.11 in 10.0 mi SSE 4.6 mph - N/A   Clear
2:40 AM 33.8 °F 29.6 °F 30.2 °F 87% 30.11 in 10.0 mi SSE 4.6 mph - N/A   Clear
2:59 AM 35.6 °F 32.8 °F 32.0 °F 87% 30.11 in 10.0 mi SE 3.5 mph - N/A   Clear
3:20 AM 33.8 °F 30.8 °F 30.2 °F 87% 30.10 in 10.0 mi SSE 3.5 mph - N/A   Clear
3:40 AM 33.8 °F 28.6 °F 30.2 °F 87% 30.10 in 10.0 mi SE 5.8 mph - N/A   Clear
3:59 AM 37.4 °F 32.1 °F 30.2 °F 75% 30.09 in 10.0 mi SSE 6.9 mph - N/A   Clear
4:20 AM 37.4 °F 32.8 °F 32.0 °F 81% 30.09 in 10.0 mi SSE 5.8 mph - N/A   Clear
4:40 AM 37.4 °F 31.4 °F 32.0 °F 81% 30.08 in 10.0 mi SSE 8.1 mph - N/A   Clear
4:59 AM 37.4 °F 31.4 °F 32.0 °F 81% 30.06 in 10.0 mi SE 8.1 mph - N/A   Clear
5:20 AM 37.4 °F 32.1 °F 32.0 °F 81% 30.07 in 10.0 mi SSE 6.9 mph - N/A   Clear
5:40 AM 37.4 °F 31.4 °F 32.0 °F 81% 30.06 in 10.0 mi SSE 8.1 mph - N/A   Clear
5:59 AM 37.4 °F 30.8 °F 32.0 °F 81% 30.06 in 10.0 mi SSE 9.2 mph - N/A   Clear
6:20 AM 37.4 °F 32.1 °F 32.0 °F 81% 30.06 in 10.0 mi SE 6.9 mph - N/A   Clear
6:40 AM 37.4 °F 30.8 °F 32.0 °F 81% 30.05 in 10.0 mi SSE 9.2 mph - N/A   Clear
6:59 AM 37.4 °F 31.4 °F 32.0 °F 81% 30.05 in 10.0 mi SSE 8.1 mph 17.3 mph N/A   Clear
7:20 AM 39.2 °F 33.6 °F 32.0 °F 75% 30.04 in 10.0 mi SSE 8.1 mph 16.1 mph N/A   Clear
7:40 AM 41.0 °F 34.3 °F 32.0 °F 70% 30.03 in 10.0 mi SSE 11.5 mph 18.4 mph N/A   Clear
7:59 AM 41.0 °F 36.4 °F 32.0 °F 70% 30.03 in 10.0 mi SSE 6.9 mph 10.4 mph N/A   Clear
8:20 AM 41.0 °F 35.2 °F 32.0 °F 70% 30.03 in 10.0 mi SSE 9.2 mph 16.1 mph N/A   Clear
8:40 AM 42.8 °F 37.0 °F 32.0 °F 66% 30.02 in 10.0 mi SSE 10.4 mph 16.1 mph N/A   Clear
9:00 AM 42.8 °F 37.5 °F 32.0 °F 66% 30.01 in 10.0 mi South 9.2 mph 17.3 mph N/A   Clear
9:20 AM 42.8 °F 37.5 °F 32.0 °F 66% 30.00 in 10.0 mi South 9.2 mph 17.3 mph N/A   Clear
9:40 AM 46.4 °F 42.9 °F 32.0 °F 57% 30.02 in 10.0 mi South 6.9 mph - N/A   Clear
10:00 AM 46.4 °F 42.4 °F 32.0 °F 57% 30.01 in 10.0 mi South 8.1 mph - N/A   Clear
10:20 AM 48.2 °F - 32.0 °F 54% 30.01 in 10.0 mi South 5.8 mph - N/A   Clear
10:40 AM 50.0 °F - 32.0 °F 50% 30.00 in 10.0 mi South 8.1 mph - N/A   Clear
11:00 AM 51.8 °F - 33.8 °F 50% 29.99 in 10.0 mi South 12.7 mph 23.0 mph N/A   Clear
11:20 AM 51.8 °F - 32.0 °F 47% 29.98 in 10.0 mi South 8.1 mph 17.3 mph N/A   Clear
11:40 AM 53.6 °F - 33.8 °F 47% 29.97 in 10.0 mi South 9.2 mph 16.1 mph N/A   Clear
12:00 PM 53.6 °F - 33.8 °F 47% 29.97 in 10.0 mi South 11.5 mph 19.6 mph N/A   Clear
12:20 PM 55.4 °F - 33.8 °F 44% 29.96 in 10.0 mi South 12.7 mph 21.9 mph N/A   Clear
12:40 PM 55.4 °F - 33.8 °F 44% 29.95 in 10.0 mi South 9.2 mph 21.9 mph N/A   Clear
1:00 PM 55.4 °F - 33.8 °F 44% 29.94 in 10.0 mi South 9.2 mph 17.3 mph N/A   Clear
1:20 PM 59.0 °F - 35.6 °F 42% 29.94 in 10.0 mi South 10.4 mph 17.3 mph N/A   Clear
1:40 PM 59.0 °F - 35.6 °F 42% 29.93 in 10.0 mi South 9.2 mph 16.1 mph N/A   Clear
2:00 PM 59.0 °F - 35.6 °F 42% 29.93 in 10.0 mi South 8.1 mph 18.4 mph N/A   Clear
2:20 PM 59.0 °F - 35.6 °F 42% 29.93 in 10.0 mi South 8.1 mph - N/A   Clear
2:40 PM 59.0 °F - 35.6 °F 42% 29.92 in 10.0 mi SSW 9.2 mph 17.3 mph N/A   Clear
3:00 PM 60.8 °F - 37.4 °F 42% 29.91 in 10.0 mi South 8.1 mph - N/A   Clear
3:20 PM 60.8 °F - 37.4 °F 42% 29.90 in 10.0 mi South 9.2 mph - N/A   Clear
3:39 PM 60.8 °F - 37.4 °F 42% 29.89 in 10.0 mi South 8.1 mph - N/A   Clear
4:00 PM 60.8 °F - 37.4 °F 42% 29.89 in 10.0 mi SSW 8.1 mph 18.4 mph N/A   Clear
4:20 PM 60.8 °F - 35.6 °F 39% 29.88 in 10.0 mi SSW 8.1 mph - N/A   Clear
4:40 PM 60.8 °F - 37.4 °F 42% 29.88 in 10.0 mi South 9.2 mph 17.3 mph N/A   Clear
5:00 PM 60.8 °F - 37.4 °F 42% 29.88 in 10.0 mi SSW 6.9 mph - N/A   Clear
5:20 PM 60.8 °F - 37.4 °F 42% 29.87 in 10.0 mi SSW 8.1 mph - N/A   Clear
5:40 PM 60.8 °F - 37.4 °F 42% 29.87 in 10.0 mi South 4.6 mph - N/A   Clear
6:00 PM 60.8 °F - 35.6 °F 39% 29.87 in 10.0 mi South 3.5 mph - N/A   Clear
6:20 PM 59.0 °F - 35.6 °F 42% 29.87 in 10.0 mi SSE 5.8 mph - N/A   Clear
6:40 PM 59.0 °F - 35.6 °F 42% 29.87 in 10.0 mi South 3.5 mph - N/A   Clear
7:00 PM 57.2 °F - 35.6 °F 44% 29.87 in 10.0 mi SE 8.1 mph - N/A   Clear
7:19 PM 53.6 °F - 35.6 °F 51% 29.87 in 10.0 mi SE 4.6 mph - N/A   Clear
7:40 PM 53.6 °F - 37.4 °F 54% 29.86 in 10.0 mi SE 6.9 mph - N/A   Clear
7:59 PM 51.8 °F - 35.6 °F 54% 29.87 in 10.0 mi SSE 4.6 mph - N/A   Clear
8:20 PM 51.8 °F - 35.6 °F 54% 29.87 in 10.0 mi SSE 3.5 mph - N/A   Clear
8:40 PM 51.8 °F - 35.6 °F 54% 29.88 in 10.0 mi SSE 4.6 mph - N/A   Clear
9:00 PM 51.8 °F - 35.6 °F 54% 29.88 in 10.0 mi SSE 4.6 mph - N/A   Clear
9:20 PM 50.0 °F - 35.6 °F 58% 29.87 in 10.0 mi South 3.5 mph - N/A   Clear
9:40 PM 48.2 °F - 35.6 °F 62% 29.87 in 10.0 mi SSE 5.8 mph - N/A   Clear
10:00 PM 48.2 °F - 35.6 °F 62% 29.86 in 10.0 mi SSE 4.6 mph - N/A   Clear
10:20 PM 48.2 °F - 35.6 °F 62% 29.87 in 10.0 mi SSE 3.5 mph - N/A   Clear
10:40 PM 46.4 °F 45.2 °F 35.6 °F 66% 29.86 in 10.0 mi SE 3.5 mph - N/A   Clear
10:59 PM 46.4 °F - 35.6 °F 66% 29.86 in 10.0 mi Calm Calm - N/A   Clear
11:20 PM 46.4 °F 44.3 °F 35.6 °F 66% 29.86 in 10.0 mi ESE 4.6 mph - N/A   Clear
11:40 PM 50.0 °F - 33.8 °F 54% 29.86 in 10.0 mi SE 5.8 mph - N/A   Clear